Date,TemperatureHighF,TemperatureAvgF,TemperatureLowF,DewpointHighF,DewpointAvgF,DewpointLowF,HumidityHigh,HumidityAvg,HumidityLow,PressureMaxIn,PressureMinIn,WindSpeedMaxMPH,WindSpeedAvgMPH,GustSpeedMaxMPH,PrecipitationSumIn
2013-6-1,-200.0,0.0,200.0,-99.9,-99.9,-99.9,0,0,100,29.65,29.59,5,2,18,0.03
2013-6-2,89.4,36.1,67.5,66.7,-25.0,-99.9,78,27,42,29.65,29.47,7,1,9,0.00
2013-6-3,71.4,67.2,63.9,67.5,63.5,57.0,91,88,77,29.59,29.50,3,0,4,0.00
2013-6-4,70.5,61.1,53.2,60.6,46.5,40.0,89,61,39,29.83,29.59,7,2,10,0.00
2013-6-5,68.4,60.4,52.3,50.7,45.1,39.6,82,59,39,29.98,29.83,4,0,7,0.00
2013-6-6,67.8,60.3,53.1,54.8,48.2,44.2,83,65,49,29.98,29.86,4,0,7,0.00
2013-6-7,59.9,56.9,53.8,57.6,53.8,49.5,93,90,78,29.89,29.53,4,1,5,0.00
2013-6-8,75.0,61.6,53.1,64.9,56.8,50.8,93,85,66,29.77,29.36,6,2,8,0.00
2013-6-9,78.4,66.8,57.6,58.2,54.2,49.0,88,66,42,29.92,29.77,6,1,7,0.00
2013-6-10,68.5,62.9,57.2,62.0,56.6,50.4,92,80,63,29.98,29.74,4,0,6,0.00
2013-6-11,71.2,63.4,58.3,64.9,60.1,56.0,92,89,78,29.74,29.30,4,0,4,0.00
2013-6-12,70.2,64.2,57.7,59.9,53.4,47.3,92,69,46,29.59,29.33,6,2,10,0.00
2013-6-13,62.4,57.6,51.1,57.1,53.1,48.1,94,85,74,29.62,29.39,4,0,6,0.00
2013-6-14,68.5,58.2,51.1,57.9,52.4,47.4,94,82,63,29.53,29.36,7,1,8,0.00
2013-6-15,77.9,66.0,55.8,53.0,48.7,41.0,81,56,33,29.71,29.53,5,1,6,0.00
2013-6-16,77.5,68.2,55.9,54.2,-15.7,-99.9,80,61,44,29.74,29.47,4,0,6,0.00
2013-6-17,82.6,79.8,75.7,-99.9,-99.9,-99.9,54,54,54,29.71,29.50,6,1,8,0.00
2013-6-18,82.9,81.8,80.6,-99.9,-99.9,-99.9,54,54,54,29.71,29.56,4,0,7,0.00
2013-6-19,82.0,81.0,79.9,-99.9,-99.9,-99.9,54,54,54,29.95,29.62,4,1,6,0.00
2013-6-20,82.2,80.7,79.7,-99.9,-99.9,-99.9,54,54,54,30.06,29.95,4,0,6,0.00
2013-6-21,82.9,81.3,80.1,-99.9,-99.9,-99.9,54,54,54,30.04,29.89,6,1,7,0.00
2013-6-22,83.1,81.6,80.6,-99.9,-99.9,-99.9,54,54,54,30.01,29.83,4,1,6,0.00
2013-6-23,83.8,82.0,80.8,-99.9,-99.9,-99.9,54,54,54,29.92,29.71,5,1,7,0.00
2013-6-24,84.2,82.0,80.6,-99.9,-99.9,-99.9,54,54,54,29.77,29.56,6,1,6,0.00
2013-6-25,84.2,81.5,80.8,-99.9,-99.9,-99.9,54,54,54,29.71,29.44,5,1,6,0.00
2013-6-26,81.0,81.0,81.0,-99.9,-99.9,-99.9,54,54,54,29.56,29.42,4,1,6,0.00
2013-6-27,81.0,81.0,81.0,-99.9,-99.9,-99.9,54,54,54,29.59,29.47,3,0,3,0.00
2013-6-28,81.0,81.0,81.0,-99.9,-99.9,-99.9,54,54,54,29.47,29.24,5,1,8,0.00
2013-6-29,81.0,81.0,81.0,-99.9,-99.9,-99.9,54,54,54,29.47,29.24,5,1,8,0.00
2013-6-30,81.0,81.0,81.0,-99.9,-99.9,-99.9,54,54,54,29.65,29.47,4,0,6,0.00
2013-7-1,81.0,81.0,81.0,-99.9,-99.9,-99.9,54,54,54,29.80,29.65,4,0,6,0.00
2013-7-2,81.0,81.0,81.0,-99.9,-99.9,-99.9,54,54,54,29.92,29.80,4,1,10,0.00
2013-7-3,81.0,81.0,81.0,-99.9,-99.9,-99.9,54,54,54,29.95,29.86,5,1,8,0.00
2013-7-4,81.0,81.0,81.0,-99.9,-99.9,-99.9,54,54,54,29.95,29.80,4,1,6,0.00
2013-7-5,81.0,81.0,81.0,-99.9,-99.9,-99.9,54,54,54,29.89,29.74,5,1,6,0.00
2013-7-6,81.0,81.0,81.0,-99.9,-99.9,-99.9,54,54,54,29.83,29.65,4,1,6,0.00
2013-7-7,81.0,81.0,81.0,-99.9,-99.9,-99.9,54,54,54,29.74,29.59,4,0,5,0.00
2013-7-8,81.0,81.0,81.0,-99.9,-99.9,-99.9,54,54,54,29.74,29.59,4,1,6,0.00
2013-7-9,81.0,81.0,81.0,-99.9,-99.9,-99.9,54,54,54,29.83,29.71,2,0,3,0.00
2013-7-10,81.0,81.0,81.0,-99.9,-99.9,-99.9,54,54,54,29.80,29.50,4,0,6,0.00
2013-7-11,81.0,81.0,81.0,-99.9,-99.9,-99.9,54,54,54,29.59,29.50,5,0,8,0.00
2013-7-18,80.8,80.8,80.8,69.6,69.6,69.6,69,69,69,29.83,29.83,6,6,6,0.00
2013-7-23,80.8,80.8,80.8,69.6,69.6,69.6,69,69,69,29.83,29.83,6,6,6,0.00
2013-8-5,80.8,80.8,80.8,69.6,69.6,69.6,69,69,69,29.80,29.80,0,0,0,0.00
2013-9-4,80.8,80.8,80.8,69.6,69.6,69.6,69,69,69,29.80,29.65,2,0,2,0.00
2013-9-5,80.8,80.8,80.8,69.6,69.6,69.6,69,69,69,29.89,29.59,3,0,4,0.00
2013-9-6,80.8,80.8,80.8,69.6,69.6,69.6,69,69,69,30.01,29.86,4,1,4,0.00
2013-9-7,80.8,80.8,80.8,69.6,69.6,69.6,69,69,69,29.89,29.62,5,1,6,0.00
2013-9-8,80.8,80.8,80.8,69.6,69.6,69.6,69,69,69,29.86,29.50,6,1,10,0.00
2013-9-9,80.8,80.8,80.8,69.6,69.6,69.6,69,69,69,30.04,29.83,4,0,5,0.00
2013-9-10,80.8,80.8,80.8,69.6,69.6,69.6,69,69,69,29.95,29.80,5,1,9,0.00
2013-9-11,80.8,80.8,80.8,69.6,69.6,69.6,69,69,69,29.83,29.65,4,1,6,0.00
2013-9-12,80.8,80.8,80.8,69.6,69.6,69.6,69,69,69,29.71,29.42,6,1,8,0.00
2013-9-13,80.8,80.8,80.8,69.6,69.6,69.6,69,69,69,29.50,29.30,4,1,6,0.00
2013-9-14,80.8,80.8,80.8,69.6,69.6,69.6,69,69,69,29.83,29.50,4,1,6,0.00
2013-9-15,80.8,80.8,80.8,69.6,69.6,69.6,69,69,69,29.92,29.83,4,0,6,0.00
2013-9-16,80.8,80.8,80.8,69.6,69.6,69.6,69,69,69,29.98,29.77,4,1,5,0.00
2013-9-17,80.8,80.8,80.8,69.6,69.6,69.6,69,69,69,30.18,29.98,5,1,6,0.00
2013-9-18,80.8,80.8,80.8,69.6,69.6,69.6,69,69,69,30.12,29.89,4,1,4,0.00
2013-9-19,80.8,80.8,80.8,69.6,69.6,69.6,69,69,69,29.92,29.89,2,2,3,0.00